Flag for U.S.A. Weather past 2 weeks in Montpelier, Vermont, U.S.A.

Now
70 °F

Sunny.


Feels Like: 77 °F
Forecast: 54 / 83 °F
Wind: No wind

Location: Knapp State Airport

Current Time: May 29, 2015 at 12:37:35 PM

Latest Report: May 29, 2015 at 11:51 AM


Visibility: 10 mi

Pressure: 30.32 "Hg

Humidity: 51%

Dew point: 51 °F

Location of MontpelierLocation

Historic Weather in Montpelier — Graph

°F

Montpelier temperature yesterday

Maximum temperature yesterday: 77 °F (at 1:51 PM)
Minimum temperature yesterday: 60 °F (at 11:51 PM)
Average temperature yesterday: 66 °F

Past Weeks' High & Low Weather Summary

 TemperatureHumidityPressure
High83 °F (May 26, 3:51 PM)100% (May 17, 5:01 AM)30.43 "Hg (May 17, 5:01 AM)
Low32 °F (May 15, 4:51 AM)22% (May 14, 4:51 PM)29.73 "Hg (May 19, 5:51 PM)
Average59 °F60%30.11 "Hg
* Reported May 14 10:51 AM — May 29 10:51 AM, Montpelier, Weather by CustomWeather, © 2015

Note: Actual official high and low records may vary slightly from our data, if they occured in-between our weather recording intervals... More about our weather records

Advertising

Montpelier weather history for previous 24 hours

 ConditionsComfort  
Time TempWeatherWind HumidityBarometerVisibility
10:51 AM
Fri, May 29
68 °FSunny.No wind59%30.35 "Hg10 mi
9:51 AM65 °FSunny.3 mph68%30.37 "Hg10 mi
9:04 AM62 °FPartly sunny.No wind73%30.38 "Hg10 mi
8:51 AM61 °FPartly sunny.No wind78%30.38 "Hg10 mi
7:51 AM59 °FOvercast.No wind87%30.38 "Hg10 mi
6:51 AM57 °FOvercast.No wind93%30.38 "Hg10 mi
6:01 AM54 °FPassing clouds.No wind97%30.35 "Hg9 mi
5:04 AM53 °FPassing clouds.No wind96%30.33 "Hg7 mi
4:51 AM53 °FMostly cloudy.3 mph93%30.33 "Hg10 mi
3:51 AM55 °FClear.No wind96%30.32 "Hg10 mi
2:51 AM58 °FMostly cloudy.5 mph90%30.33 "Hg10 mi
1:51 AM54 °FClear.5 mph97%30.32 "Hg10 mi
1:01 AM59 °FMostly cloudy.5 mph87%30.32 "Hg10 mi
11:51 PM
Thu, May 28
60 °FOvercast.5 mph83%30.31 "Hg10 mi
10:51 PM61 °FOvercast.7 mph81%30.30 "Hg10 mi
9:51 PM62 °FOvercast.10 mph78%30.28 "Hg10 mi
8:51 PM61 °FPartly sunny.5 mph81%30.25 "Hg10 mi
7:51 PM61 °FOvercast.9 mph81%30.24 "Hg10 mi
6:51 PM63 °FOvercast.7 mph73%30.21 "Hg10 mi
5:51 PM65 °FMostly cloudy.9 mph68%30.18 "Hg10 mi
4:51 PM64 °FOvercast.8 mph73%30.17 "Hg10 mi
3:51 PM66 °FPartly sunny.18 mph75%30.13 "Hg10 mi
2:51 PM68 °FCloudy.13 mph73%30.12 "Hg10 mi
1:51 PM77 °FSunny.9 mph48%30.07 "Hg10 mi
12:51 PM76 °FPassing clouds.16 mph56%30.08 "Hg10 mi
Weather by CustomWeather, © 2015

See weather overviewHow to use our weather pages